[[{"header":{"parameterUnit":"m.s-1","parameterCategory":1,"la1":30.2991,"la2":30.254,"lo1":-89.0895,"lo2":-89.0444,"dy":0.0017,"dx":0.0017,"nx":28,"ny":28,"refTime":"2024-02-23T03:00:00:Z","depth":0,"parameterNumber":2,"parameterNumberName":"U-component_of_WINDS"},"data":[0,0,0,0,0,0,0,0,0,0,0,0,0,0,0,0,0,0,0,0,0,0,0,0,0,0,0,0,0,0,0,0,0,0,0,0,0,0,0,0,0,0,0,0,0,0,0,0,0,0,0,0,0,0,0,0,0,0,1.3964,1.3964,0,1.4,1.4001,1.4001,1.3984,1.3983,1.3982,1.3981,1.4022,1.4023,1.4025,0,0,0,0,0,0,0,0,0,0,0,0,0,1.3881,1.3883,1.3964,1.3964,1.3965,1.4,1.4001,1.4001,1.3984,1.3983,1.3981,1.398,1.4021,1.4023,1.4026,0,0,0,0,0,0,0,0,0,0,0,0,0,1.3917,1.3883,1.3964,1.396,1.396,1.4,1.4001,1.4002,1.3984,1.3983,1.3981,1.398,1.402,1.4023,1.4026,1.4073,0,0,1.4035,1.4036,0,0,0,0,0,0,0,0,1.3915,1.392,1.396,1.396,1.3961,1.3986,1.3987,1.4026,1.3984,1.3975,1.3981,1.3979,1.4011,1.4015,1.4025,1.4075,1.4076,1.4035,1.4037,1.4038,1.4039,0,0,0,0,0,0,0,1.3913,1.3919,1.3978,1.3961,1.3961,1.3958,1.3961,1.3994,1.4001,1.3976,1.3975,1.3979,1.4011,1.4022,1.4026,1.4077,1.4035,1.4038,1.404,1.4041,1.4167,1.4169,0,0,0,0,0,0,1.391,1.3917,1.3977,1.3979,1.3934,1.396,1.3964,1.3979,1.4,1.4002,1.398,1.3978,1.4018,1.4022,1.4027,1.4084,1.4038,1.4041,1.4043,1.4166,1.4168,1.4169,0,0,0,0,0,0,1.3908,1.3916,1.3976,1.3948,1.3955,1.3963,1.398,1.3981,1.3992,1.4004,1.4005,1.399,1.4017,1.4023,1.4061,1.4085,1.4042,1.4045,1.4164,1.4166,1.4169,1.4197,0,0,0,0,0,0,1.3906,1.3915,1.3932,1.3948,1.3957,1.4009,1.3982,1.3983,1.3997,1.3994,1.4013,1.4015,1.4016,1.4057,1.4064,1.4088,1.4047,1.4162,1.4165,1.4168,1.4194,1.42,1.4205,0,0,0,0,0,1.3903,1.394,1.3933,1.3941,1.3978,1.401,1.4015,1.4015,1.3998,1.4016,1.4024,1.4014,1.4081,1.4061,1.4069,1.4094,1.416,1.4164,1.4168,1.4192,1.4199,1.4205,0,0,0,0,0,0,1.3927,1.3942,1.3935,1.3977,1.3993,1.4007,1.403,1.4022,1.4043,1.404,1.404,1.4044,1.4084,1.4093,1.4071,1.4141,1.4118,1.4124,1.4134,1.4141,1.4146,1.4144,1.405,0,0,0,0,0,1.3937,1.3961,1.3973,1.4009,1.4017,1.4022,1.4036,1.4034,1.405,1.4057,1.4067,1.4084,1.4109,1.4125,1.4148,1.4195,1.4199,1.4216,1.4222,1.4226,1.4231,1.4257,1.4265,1.4181,1.4181,1.4181,0,0,1.3959,1.397,1.3985,1.4014,1.4026,1.4051,1.4028,1.4056,1.4075,1.4061,1.4098,1.4106,1.4125,1.4168,1.4187,1.4177,1.4255,1.4231,1.4234,1.4237,1.4261,1.4269,1.4276,1.4184,1.4183,1.4183,0,0,1.4012,1.4022,1.4053,1.4065,1.4082,1.4085,1.4093,1.4109,1.4113,1.415,1.414,1.4163,1.4206,1.4219,1.4232,1.4289,1.4281,1.4297,1.4326,1.4352,1.4358,1.4364,1.4385,1.4393,1.4301,1.4301,1.4301,0,1.4037,1.4074,1.4071,1.4099,1.4113,1.41,1.4133,1.4145,1.417,1.418,1.4166,1.4219,1.4231,1.4277,1.4291,1.4301,1.431,1.4295,1.4357,1.4363,1.4369,1.4389,1.4397,1.4303,1.4303,1.4303,1.4303,0,1.4104,1.413,1.4154,1.4177,1.4193,1.4223,1.4226,1.4242,1.4239,1.4243,1.4281,1.4294,1.432,1.4331,1.4328,1.4377,1.4369,1.4357,1.4335,1.4378,1.4397,1.4405,1.4306,1.4305,1.4305,1.4304,0,0,1.4174,1.4194,1.4203,1.4214,1.4232,1.4252,1.4282,1.4306,1.4321,1.4338,1.4364,1.44,1.4388,1.4402,1.4401,1.4423,1.4468,1.4407,1.4408,1.4419,1.4523,1.4533,1.4542,1.4462,1.4464,1.4465,1.4522,0,1.4229,1.4281,1.4279,1.4328,1.4352,1.434,1.4366,1.4381,1.4386,1.4408,1.4413,1.4439,1.4421,1.443,1.445,1.4458,1.4489,1.4453,1.4488,1.4489,1.4484,1.4552,1.4563,1.4617,1.4529,1.453,1.4531,0,1.43,1.4319,1.437,1.4384,1.4394,1.4418,1.444,1.4461,1.4477,1.4479,1.4494,1.4489,1.452,1.4496,1.4539,1.4515,1.4529,1.4534,1.4536,1.4541,1.4514,1.456,1.4634,1.4642,1.4543,1.4542,1.4541,0,1.4347,1.4385,1.4421,1.443,1.4447,1.4464,1.4472,1.4487,1.4501,1.4521,1.453,1.4553,1.4566,1.4585,1.4586,1.4568,1.463,1.4606,1.4634,1.4634,1.4649,1.4648,1.4727,1.4655,1.4655,1.4655,1.4655,0,1.4409,1.4442,1.4442,1.4464,1.45,1.4497,1.4533,1.4539,1.4552,1.4576,1.4567,1.4589,1.4589,1.4612,1.4614,1.465,1.4656,1.4659,1.4659,1.4661,1.466,1.4671,1.4667,1.4657,1.4657,1.4656,1.4656,0,1.4469,1.4471,1.4509,1.4522,1.4526,1.4552,1.4563,1.4584,1.4588,1.4618,1.4625,1.4631,1.4657,1.466,1.4691,1.4692,1.4736,1.4732,1.4731,1.4731,1.4759,1.4757,1.4849,1.4861,1.478,1.478,1.4781,0,1.4509,1.4534,1.4549,1.4564,1.4572,1.4596,1.4611,1.4609,1.4625,1.4645,1.4664,1.4689,1.471,1.4753,1.4761,1.4785,1.4782,1.4812,1.4785,1.4786,1.4784,1.4783,1.4785,1.4818,1.4819,1.4819,1.482,0,1.4581,1.458,1.4601,1.4623,1.4641,1.4658,1.4673,1.4686,1.4686,1.4705,1.4731,1.4747,1.4778,1.4804,1.4828,1.4837,1.4829,1.4828,1.4836,1.4839,1.4837,1.484,1.4746,1.4826,1.4826,1.4825,1.4825,1.4825,1.4633,1.4654,1.4668,1.4692,1.4703,1.4718,1.4739,1.4745,1.4767,1.4792,1.4789,1.4819,1.4834,1.4865,1.4875,1.4899,1.4889,1.49,1.4903,1.4907,1.491,1.4832,1.4903,1.4903,1.4903,1.4903,1.4902,0,1.4705,1.4713,1.4735,1.4757,1.4776,1.4765,1.4782,1.4799,1.4825,1.484,1.486,1.4891,1.4916,1.4925,1.4949,1.4966,1.4963,1.4973,1.4972,1.4975,1.4917,1.4908,1.4975,1.4975,1.4975,1.4975,1.4975,1.4975,1.4745,1.478,1.4781,1.4823,1.4831,1.4859,1.487,1.4884,1.4895,1.493,1.495,1.4956,1.4968,1.4993,1.5016,1.5018,1.5028,1.5039,1.504,1.4986,1.4979,1.4972,1.4964,1.5041,1.5041,1.5095,1.5096,1.5096]},{"header":{"parameterUnit":"m.s-1","parameterCategory":1,"la1":30.2991,"la2":30.254,"lo1":-89.0895,"lo2":-89.0444,"dy":0.0017,"dx":0.0017,"nx":28,"ny":28,"refTime":"2024-02-23T03:00:00:Z","depth":0,"parameterNumber":3,"parameterNumberName":"V-component_of_WINDS"},"data":[0,0,0,0,0,0,0,0,0,0,0,0,0,0,0,0,0,0,0,0,0,0,0,0,0,0,0,0,0,0,0,0,0,0,0,0,0,0,0,0,0,0,0,0,0,0,0,0,0,0,0,0,0,0,0,0,0,0,5.0323,5.0323,0,5.0332,5.0332,5.0332,5.026,5.0258,5.0256,5.0255,5.0262,5.0264,5.0266,0,0,0,0,0,0,0,0,0,0,0,0,0,5.0242,5.0244,5.0323,5.0323,5.0323,5.0332,5.0332,5.0332,5.0261,5.0258,5.0256,5.0254,5.0262,5.0264,5.0266,0,0,0,0,0,0,0,0,0,0,0,0,0,5.0266,5.0244,5.0323,5.0289,5.0286,5.0332,5.0332,5.0332,5.0261,5.0258,5.0255,5.0253,5.0261,5.0264,5.0267,5.0346,0,0,5.0276,5.0278,0,0,0,0,0,0,0,0,5.0265,5.027,5.0294,5.0291,5.0288,5.0292,5.0306,5.0337,5.0262,5.0271,5.0255,5.0251,5.0274,5.0276,5.0284,5.0346,5.0346,5.0277,5.0278,5.028,5.0281,0,0,0,0,0,0,0,5.0264,5.0269,5.0326,5.0294,5.0291,5.0272,5.0272,5.0312,5.0289,5.027,5.0264,5.0267,5.0272,5.0282,5.0284,5.0347,5.0276,5.0279,5.0281,5.0282,5.0473,5.0476,0,0,0,0,0,0,5.0267,5.0268,5.0326,5.0327,5.0269,5.0276,5.0276,5.0294,5.0289,5.0285,5.0269,5.0263,5.0278,5.0281,5.0284,5.0376,5.028,5.0283,5.0284,5.047,5.0473,5.0477,0,0,0,0,0,0,5.0265,5.0273,5.0326,5.0296,5.0301,5.0281,5.0301,5.0295,5.0305,5.0288,5.0284,5.0283,5.0276,5.028,5.0331,5.0375,5.0284,5.0287,5.0466,5.0471,5.0475,5.0561,0,0,0,0,0,0,5.0263,5.0273,5.0303,5.0297,5.0303,5.0373,5.0303,5.0298,5.031,5.0303,5.03,5.0297,5.0274,5.0327,5.0334,5.0378,5.0289,5.0462,5.0468,5.0474,5.0554,5.0568,5.058,0,0,0,0,0,5.0261,5.0327,5.0305,5.0312,5.0341,5.0376,5.0379,5.0352,5.0314,5.0344,5.0333,5.0297,5.0369,5.0333,5.034,5.0386,5.0459,5.0466,5.0473,5.0548,5.0565,5.058,0,0,0,0,0,0,5.0338,5.0325,5.0301,5.0367,5.0373,5.0364,5.0401,5.0371,5.0388,5.038,5.0345,5.0345,5.0402,5.0398,5.0358,5.0461,5.0407,5.0416,5.0462,5.0478,5.0491,5.049,5.0292,0,0,0,0,0,5.0363,5.0393,5.038,5.044,5.0444,5.0422,5.0437,5.0415,5.042,5.0422,5.0415,5.042,5.0444,5.0461,5.0482,5.0553,5.0551,5.0588,5.0601,5.0612,5.062,5.0657,5.0674,5.0501,5.0501,5.05,0,0,5.0414,5.0411,5.0432,5.0455,5.0457,5.0489,5.0425,5.0461,5.0484,5.0427,5.0475,5.047,5.0474,5.0536,5.0562,5.0535,5.0667,5.0621,5.063,5.0632,5.0667,5.0683,5.0698,5.0505,5.0505,5.0504,0,0,5.0524,5.0525,5.0575,5.0578,5.0582,5.0567,5.0579,5.0574,5.0569,5.0617,5.0575,5.0601,5.0643,5.0647,5.0655,5.0766,5.0733,5.0774,5.0842,5.0879,5.0892,5.0904,5.0944,5.0959,5.0782,5.0782,5.0782,0,5.0588,5.0634,5.0604,5.0643,5.0654,5.0604,5.0653,5.0658,5.0669,5.0677,5.0646,5.0698,5.0697,5.0759,5.0786,5.0794,5.0806,5.0774,5.0893,5.0905,5.0915,5.0953,5.0968,5.0787,5.0787,5.0786,5.0786,0,5.0712,5.0745,5.0784,5.0797,5.0812,5.0856,5.0832,5.085,5.0827,5.0815,5.0864,5.0861,5.0881,5.0893,5.0871,5.0952,5.0935,5.0899,5.0844,5.0937,5.0972,5.0986,5.0794,5.0792,5.0791,5.079,0,0,5.0872,5.0866,5.0881,5.0886,5.0887,5.0911,5.0953,5.0972,5.0989,5.0998,5.1032,5.1068,5.1034,5.1043,5.1021,5.1053,5.1141,5.1013,5.1012,5.1037,5.123,5.1258,5.1275,5.1119,5.1121,5.1123,5.123,0,5.098,5.1051,5.1024,5.1098,5.1127,5.108,5.1115,5.1119,5.1109,5.1132,5.112,5.1147,5.1101,5.1106,5.1135,5.1124,5.118,5.1116,5.115,5.1151,5.1151,5.1293,5.1323,5.1424,5.1244,5.1246,5.1248,0,5.1115,5.113,5.1206,5.1201,5.1213,5.1246,5.1261,5.1284,5.1287,5.1277,5.1287,5.1257,5.1297,5.1241,5.1295,5.1253,5.1264,5.1261,5.1264,5.1267,5.1206,5.13,5.1455,5.1471,5.1269,5.1267,5.1265,0,5.1225,5.1264,5.1314,5.132,5.1315,5.1339,5.1338,5.1338,5.1351,5.1364,5.1373,5.139,5.14,5.1414,5.1389,5.1351,5.1447,5.1389,5.144,5.1441,5.1463,5.1462,5.1623,5.147,5.1469,5.1469,5.1469,0,5.1348,5.1397,5.1363,5.1395,5.1447,5.1415,5.1468,5.1462,5.1462,5.1491,5.145,5.1478,5.1443,5.1467,5.1448,5.1496,5.15,5.1493,5.1488,5.1498,5.1499,5.1505,5.1498,5.1473,5.1472,5.1471,5.1471,0,5.148,5.146,5.1512,5.1503,5.1502,5.1541,5.1533,5.1561,5.1547,5.1584,5.1591,5.157,5.1596,5.1572,5.1598,5.1584,5.1648,5.1632,5.1648,5.1643,5.1695,5.1691,5.1867,5.1888,5.1721,5.1723,5.1724,0,5.1561,5.1597,5.1592,5.1609,5.161,5.1637,5.165,5.162,5.1635,5.1641,5.1669,5.1691,5.1708,5.1752,5.1739,5.1758,5.1742,5.1802,5.1745,5.1753,5.1744,5.1742,5.1746,5.1815,5.1817,5.1818,5.1819,0,5.1706,5.1694,5.1715,5.1733,5.175,5.1762,5.1771,5.1786,5.1755,5.1774,5.1801,5.1814,5.1839,5.1862,5.1877,5.1875,5.1843,5.1838,5.185,5.1861,5.1869,5.1865,5.168,5.1834,5.1832,5.1831,5.1831,5.183,5.1815,5.1845,5.1846,5.1871,5.1874,5.1883,5.1909,5.1899,5.192,5.1939,5.1919,5.1952,5.1953,5.1969,5.1971,5.1996,5.1971,5.1989,5.1994,5.1999,5.2007,5.1864,5.1998,5.1998,5.1997,5.1997,5.1997,0,5.1959,5.1957,5.198,5.1993,5.2013,5.198,5.1988,5.2006,5.2035,5.2039,5.2056,5.2087,5.2109,5.2097,5.2116,5.2138,5.2123,5.2144,5.2142,5.2142,5.2028,5.2015,5.2155,5.2155,5.2155,5.2155,5.2155,5.2155,5.2036,5.2085,5.2072,5.2122,5.212,5.2151,5.2159,5.2167,5.217,5.2205,5.2224,5.2216,5.2213,5.2232,5.225,5.2246,5.2255,5.2282,5.2272,5.2166,5.215,5.2135,5.2123,5.2284,5.2284,5.2384,5.2385,5.2386]}]]